Date String (YYYY-MM-DD hh:mm:ss) UTC,Instrument flags,Ambient pressure (hPa),Sample flow (lpm),Bypass flow (lpm),Sample temperature (°C),Ambient temperature (°C),ASC tube jacket temperature (°C),LED temperature (°C),Box temperature (°C),Sample RH (%),Span deviation,Mass concentration (μg/m³),Mass concentration (μg/m³),Mass concentration (μg/m³)
DateTimeUTC,F1_M11,P_M11,Q1_M11,Q2_M11,T1_M11,T2_M11,T3_M11,T4_M11,T5_M11,U1_M11,ZSPAN_M11,X0_M11,X2_M11,X1_M11
2021-08-20 14:00:00,,0825.0,4.99,0.00,29.3,28.5,00.0,38.6,31.1,16.6,0003.2,0014.53,0009.48,0008.96
2021-08-20 14:01:00,,0825.0,5.01,0.00,29.3,28.5,00.0,38.5,31.0,16.1,0003.1,0015.04,0009.62,0009.09
2021-08-20 14:02:00,,0825.1,5.00,0.00,29.3,28.4,00.0,38.5,31.0,15.8,0003.0,0015.57,0009.87,0009.28
2021-08-20 14:03:00,,0825.1,4.99,0.00,29.3,28.4,00.0,38.5,31.0,16.2,0002.8,0015.87,0010.09,0009.47
2021-08-20 14:04:00,,0825.1,5.00,0.00,29.3,28.4,00.0,38.5,31.0,16.4,0002.6,0016.26,0010.30,0009.66
2021-08-20 14:05:00,,0825.0,5.01,0.00,29.3,28.4,00.0,38.5,31.0,16.4,0002.7,0016.58,0010.53,0009.84
2021-08-20 14:06:00,,0825.0,5.01,0.00,29.2,28.4,00.0,38.5,31.0,15.9,0002.8,0016.71,0010.77,0010.09
2021-08-20 14:07:00,,0825.1,4.99,0.00,29.2,28.4,00.0,38.5,31.0,15.8,0002.6,0016.88,0011.00,0010.34
2021-08-20 14:08:00,,0824.9,5.01,0.00,29.2,28.4,00.0,38.5,30.9,15.8,0002.3,0017.34,0011.24,0010.56
2021-08-20 14:09:00,,0825.0,4.99,0.00,29.2,28.4,00.0,38.5,30.9,15.7,0002.1,0017.48,0011.42,0010.74
2021-08-20 14:10:00,,0825.2,5.01,0.00,29.2,28.4,00.0,38.5,31.0,15.5,0002.1,0017.29,0011.59,0010.93
2021-08-20 14:11:00,,0825.2,5.00,0.00,29.2,28.4,00.0,38.5,31.0,16.2,0002.0,0017.31,0011.73,0011.09
2021-08-20 14:12:00,,0825.2,5.01,0.00,29.2,28.4,00.0,38.4,31.0,16.4,0002.1,0017.05,0011.85,0011.22
2021-08-20 14:13:00,,0825.2,4.99,0.00,29.2,28.4,00.0,38.4,31.0,16.6,0002.1,0016.96,0011.93,0011.31
2021-08-20 14:14:00,,0825.2,5.01,0.00,29.2,28.4,00.0,38.4,31.0,15.5,0002.3,0017.20,0012.06,0011.42
2021-08-20 14:15:00,,0825.1,5.01,0.00,29.2,28.4,00.0,38.4,30.9,15.6,0002.4,0017.43,0012.18,0011.53
2021-08-20 14:16:00,,0825.1,4.99,0.00,29.2,28.4,00.0,38.4,30.9,14.9,0002.3,0017.80,0012.26,0011.61
2021-08-20 14:17:00,,0825.0,5.00,0.00,29.2,28.4,00.0,38.4,30.9,14.6,0002.3,0018.69,0012.50,0011.83
2021-08-20 14:18:00,,0824.9,5.01,0.00,29.2,28.4,00.0,38.4,30.9,14.6,0002.4,0019.42,0012.89,0012.20
2021-08-20 14:19:00,,0824.9,5.01,0.00,29.2,28.4,00.0,38.4,30.9,15.0,0002.6,0019.57,0013.15,0012.45
2021-08-20 14:20:00,,0825.0,5.00,0.00,29.2,28.3,00.0,38.4,30.9,15.6,0002.7,0019.78,0013.34,0012.64
2021-08-20 14:21:00,,0824.9,4.99,0.00,29.1,28.3,00.0,38.4,30.9,16.0,0002.7,0019.72,0013.56,0012.82
2021-08-20 14:22:00,,0824.8,5.01,0.00,29.1,28.3,00.0,38.4,30.9,15.4,0002.8,0020.26,0013.92,0013.10
2021-08-20 14:23:00,,0824.8,4.99,0.00,29.2,28.4,00.0,38.4,30.9,15.2,0002.7,0020.83,0014.30,0013.47
2021-08-20 14:24:00,,0824.9,5.00,0.00,29.2,28.4,00.0,38.4,30.9,15.3,0002.7,0021.34,0014.71,0013.88
2021-08-20 14:25:00,,0824.8,5.00,0.00,29.2,28.4,00.0,38.4,30.9,15.7,0002.6,0021.55,0015.03,0014.24
2021-08-20 14:26:00,,0824.8,5.00,0.00,29.2,28.4,00.0,38.4,30.9,15.7,0002.7,0021.97,0015.31,0014.53
2021-08-20 14:27:00,,0824.9,5.01,0.00,29.2,28.3,00.0,38.4,30.9,15.7,0002.6,0022.04,0015.56,0014.80
2021-08-20 14:28:00,,0824.8,5.00,0.00,29.1,28.3,00.0,38.4,30.9,15.0,0002.5,0021.55,0015.66,0014.91
2021-08-20 14:29:00,,0824.8,5.00,0.00,29.1,28.3,00.0,38.3,30.8,15.0,0002.5,0021.62,0015.73,0014.94
2021-08-20 14:30:00,,0824.9,5.00,0.00,29.1,28.3,00.0,38.3,30.8,15.1,0002.4,0021.80,0015.87,0015.07
2021-08-20 14:31:00,,0824.8,4.99,0.00,29.1,28.3,00.0,38.3,30.8,14.7,0002.3,0022.22,0016.07,0015.27
2021-08-20 14:32:00,,0824.7,5.01,0.00,29.1,28.3,00.0,38.3,30.8,14.8,0002.2,0022.48,0016.24,0015.45
2021-08-20 14:33:00,,0824.8,4.99,0.00,29.1,28.3,00.0,38.3,30.8,14.8,0002.2,0022.83,0016.29,0015.54
2021-08-20 14:34:00,,0824.9,5.01,0.00,29.1,28.3,00.0,38.3,30.8,15.1,0002.3,0023.23,0016.28,0015.55
2021-08-20 14:35:00,,0824.9,5.00,0.00,29.1,28.3,00.0,38.3,30.8,16.4,0002.4,0022.99,0016.12,0015.41
2021-08-20 14:36:00,,0824.7,5.00,0.00,29.1,28.3,00.0,38.3,30.8,16.6,0002.6,0022.91,0015.88,0015.13
2021-08-20 14:37:00,,0824.7,5.00,0.00,29.1,28.3,00.0,38.3,30.8,15.4,0002.5,0023.14,0015.79,0015.04
2021-08-20 14:38:00,,0824.6,5.01,0.00,29.1,28.3,00.0,38.3,30.8,15.6,0002.5,0023.22,0015.87,0015.09
2021-08-20 14:39:00,,0824.6,4.99,0.00,29.1,28.3,00.0,38.3,30.8,15.1,0002.5,0023.29,0015.89,0015.08
2021-08-20 14:40:00,,0824.8,5.01,0.00,29.1,28.2,00.0,38.3,30.7,15.4,0002.5,0023.53,0015.85,0015.03
2021-08-20 14:41:00,,0824.9,4.99,0.00,29.0,28.2,00.0,38.3,30.7,15.3,0002.5,0023.44,0015.75,0014.96
2021-08-20 14:42:00,,0824.9,4.99,0.00,29.0,28.2,00.0,38.3,30.7,15.8,0002.6,0023.22,0015.67,0014.84
2021-08-20 14:43:00,,0824.9,5.01,0.00,29.0,28.2,00.0,38.3,30.7,15.6,0002.8,0023.07,0015.56,0014.70
2021-08-20 14:44:00,,0824.8,5.01,0.00,29.0,28.1,00.0,38.3,30.7,15.7,0002.7,0022.65,0015.46,0014.58
2021-08-20 14:45:00,,0824.7,5.00,0.00,29.0,28.1,00.0,38.2,30.7,15.8,0002.5,0022.29,0015.44,0014.52
2021-08-20 14:46:00,,0824.9,5.00,0.00,29.0,28.2,00.0,38.2,30.6,15.6,0002.3,0022.48,0015.50,0014.58
2021-08-20 14:47:00,,0824.8,5.01,0.00,29.0,28.2,00.0,38.2,30.7,15.6,0002.1,0022.53,0015.72,0014.79
2021-08-20 14:48:00,,0824.9,5.00,0.00,29.0,28.2,00.0,38.2,30.7,15.2,0002.3,0022.09,0015.85,0014.92
2021-08-20 14:49:00,,0824.9,5.00,0.00,29.0,28.2,00.0,38.2,30.7,15.3,0002.5,0022.07,0015.82,0014.89
2021-08-20 14:50:00,,0824.8,5.00,0.00,29.0,28.2,00.0,38.2,30.7,15.4,0002.5,0021.94,0015.74,0014.83
2021-08-20 14:51:00,,0824.9,5.01,0.00,29.0,28.2,00.0,38.2,30.7,15.8,0002.6,0021.49,0015.62,0014.73
2021-08-20 14:52:00,,0824.9,4.99,0.00,29.0,28.2,00.0,38.2,30.7,16.2,0002.5,0021.33,0015.53,0014.61
2021-08-20 14:53:00,,0825.0,5.01,0.00,29.0,28.2,00.0,38.2,30.7,16.4,0002.4,0021.44,0015.43,0014.53
2021-08-20 14:54:00,,0824.9,4.99,0.00,29.0,28.2,00.0,38.2,30.7,15.9,0002.3,0021.69,0015.33,0014.46
2021-08-20 14:55:00,,0824.9,5.00,0.00,29.0,28.2,00.0,38.2,30.7,15.6,0002.4,0021.79,0015.30,0014.46
2021-08-20 14:56:00,,0824.9,5.00,0.00,29.0,28.3,00.0,38.2,30.7,16.1,0002.4,0021.65,0015.26,0014.44
2021-08-20 14:57:00,,0824.9,4.98,0.00,29.0,28.3,00.0,38.2,30.8,16.0,0002.6,0021.57,0015.26,0014.45
2021-08-20 14:58:00,,0824.9,5.01,0.00,29.1,28.3,00.0,38.2,30.8,16.7,0002.5,0021.70,0015.27,0014.45
2021-08-20 14:59:00,,0824.9,5.00,0.00,29.1,28.3,00.0,38.2,30.8,16.4,0002.2,0021.79,0015.24,0014.43
